[[{"header":{"parameterUnit":"m.s-1","parameterCategory":1,"la1":30.2991,"la2":30.254,"lo1":-89.0895,"lo2":-89.0444,"dy":0.0017,"dx":0.0017,"nx":28,"ny":28,"refTime":"2024-02-11T03:00:00:Z","depth":0,"parameterNumber":2,"parameterNumberName":"U-component_of_WINDS"},"data":[0,0,0,0,0,0,0,0,0,0,0,0,0,0,0,0,0,0,0,0,0,0,0,0,0,0,0,0,0,0,0,0,0,0,0,0,0,0,0,0,0,0,0,0,0,0,0,0,0,0,0,0,0,0,0,0,0,0,-2.3823,-2.3823,0,-2.3896,-2.3897,-2.3897,-2.3877,-2.3875,-2.3874,-2.3872,-2.3953,-2.3956,-2.396,0,0,0,0,0,0,0,0,0,0,0,0,0,-2.3671,-2.3674,-2.3822,-2.3823,-2.3824,-2.3896,-2.3897,-2.3898,-2.3877,-2.3875,-2.3873,-2.3872,-2.3952,-2.3956,-2.396,0,0,0,0,0,0,0,0,0,0,0,0,0,-2.374,-2.3675,-2.3822,-2.3823,-2.3823,-2.3895,-2.3897,-2.3898,-2.3878,-2.3875,-2.3873,-2.3871,-2.395,-2.3956,-2.3961,-2.4039,0,0,-2.3977,-2.3979,0,0,0,0,0,0,0,0,-2.3736,-2.3746,-2.3822,-2.3823,-2.3824,-2.3875,-2.3873,-2.3945,-2.3878,-2.3857,-2.3872,-2.387,-2.3929,-2.3936,-2.3955,-2.4043,-2.4046,-2.3978,-2.3981,-2.3983,-2.3985,0,0,0,0,0,0,0,-2.3731,-2.3742,-2.3852,-2.3823,-2.3824,-2.3821,-2.3828,-2.3886,-2.3905,-2.3859,-2.3857,-2.3866,-2.3929,-2.395,-2.3957,-2.4047,-2.3977,-2.3982,-2.3985,-2.3988,-2.4204,-2.4207,0,0,0,0,0,0,-2.3725,-2.3738,-2.3849,-2.3854,-2.3773,-2.3826,-2.3834,-2.3861,-2.3904,-2.3909,-2.3868,-2.3865,-2.3942,-2.3951,-2.3959,-2.4054,-2.3983,-2.3988,-2.3991,-2.4202,-2.4205,-2.4208,0,0,0,0,0,0,-2.3722,-2.3735,-2.3846,-2.3796,-2.381,-2.3831,-2.3861,-2.3863,-2.3884,-2.3911,-2.3915,-2.3885,-2.394,-2.3952,-2.4019,-2.4056,-2.399,-2.3995,-2.4199,-2.4203,-2.4206,-2.4243,0,0,0,0,0,0,-2.3718,-2.3734,-2.3762,-2.3796,-2.3812,-2.3903,-2.3863,-2.3866,-2.3892,-2.3889,-2.3928,-2.3933,-2.394,-2.4011,-2.4024,-2.4063,-2.3999,-2.4195,-2.4201,-2.4205,-2.4239,-2.4248,-2.4256,0,0,0,0,0,-2.3712,-2.3771,-2.3764,-2.3777,-2.3848,-2.3905,-2.3914,-2.3919,-2.3895,-2.3925,-2.3943,-2.3931,-2.4051,-2.4018,-2.4033,-2.4073,-2.4193,-2.4199,-2.4205,-2.4235,-2.4246,-2.4256,0,0,0,0,0,0,-2.3742,-2.3775,-2.3768,-2.3839,-2.3869,-2.3901,-2.3939,-2.3931,-2.397,-2.3966,-2.3972,-2.3981,-2.405,-2.4069,-2.4032,-2.4152,-2.4119,-2.4128,-2.4137,-2.4148,-2.4156,-2.415,-2.4004,0,0,0,0,0,-2.3757,-2.3798,-2.3826,-2.3886,-2.3902,-2.3918,-2.3943,-2.3944,-2.3976,-2.399,-2.4012,-2.4046,-2.4091,-2.4121,-2.4163,-2.4242,-2.4251,-2.4277,-2.4286,-2.4293,-2.43,-2.4344,-2.4356,-2.4227,-2.4227,-2.4226,0,0,-2.3788,-2.3811,-2.3837,-2.3893,-2.3916,-2.3961,-2.3929,-2.3977,-2.4011,-2.3998,-2.4062,-2.408,-2.4118,-2.4192,-2.4225,-2.4209,-2.4338,-2.43,-2.4305,-2.4309,-2.4351,-2.4363,-2.4374,-2.4231,-2.423,-2.4229,0,0,-2.3867,-2.3888,-2.3941,-2.3965,-2.4001,-2.4011,-2.4024,-2.4058,-2.4069,-2.4133,-2.4124,-2.4166,-2.4243,-2.4271,-2.4295,-2.4386,-2.4378,-2.4401,-2.4444,-2.4487,-2.4497,-2.4506,-2.4539,-2.4551,-2.4408,-2.4408,-2.4408,0,-2.3901,-2.3966,-2.3969,-2.4019,-2.4044,-2.4033,-2.4087,-2.4111,-2.416,-2.4179,-2.416,-2.4257,-2.4282,-2.4362,-2.4384,-2.4404,-2.442,-2.4395,-2.4495,-2.4504,-2.4513,-2.4544,-2.4557,-2.4411,-2.441,-2.441,-2.441,0,-2.4007,-2.4053,-2.4091,-2.4136,-2.4167,-2.4219,-2.4231,-2.4262,-2.4261,-2.4275,-2.4341,-2.4371,-2.442,-2.4439,-2.444,-2.452,-2.4509,-2.4493,-2.446,-2.4528,-2.4557,-2.4569,-2.4414,-2.4413,-2.4413,-2.4412,0,0,-2.4105,-2.4152,-2.4166,-2.4187,-2.4226,-2.4263,-2.4316,-2.4362,-2.4388,-2.4423,-2.4468,-2.4534,-2.4519,-2.4547,-2.4551,-2.4589,-2.466,-2.4568,-2.4569,-2.4584,-2.4751,-2.4762,-2.4776,-2.4655,-2.4657,-2.4659,-2.4748,0,-2.4188,-2.4277,-2.4282,-2.4364,-2.4407,-2.4398,-2.4444,-2.4474,-2.4489,-2.4529,-2.4546,-2.4593,-2.457,-2.4586,-2.4623,-2.4643,-2.4693,-2.4637,-2.4698,-2.47,-2.4687,-2.4791,-2.4803,-2.4885,-2.4759,-2.4761,-2.4763,0,-2.4295,-2.4331,-2.4417,-2.4451,-2.4469,-2.451,-2.4553,-2.4591,-2.4627,-2.4635,-2.4666,-2.4665,-2.4721,-2.4686,-2.4765,-2.4726,-2.4752,-2.4766,-2.4769,-2.4774,-2.4735,-2.4799,-2.4912,-2.4924,-2.4781,-2.4779,-2.4778,0,-2.4358,-2.4429,-2.4489,-2.4507,-2.4548,-2.4577,-2.4596,-2.4629,-2.4657,-2.4696,-2.4714,-2.476,-2.4785,-2.4822,-2.4834,-2.4808,-2.4913,-2.4879,-2.4922,-2.4922,-2.4943,-2.4942,-2.5061,-2.4961,-2.4961,-2.4961,-2.496,0,-2.4449,-2.4502,-2.4518,-2.4555,-2.4615,-2.4621,-2.4681,-2.4699,-2.4728,-2.477,-2.4767,-2.4807,-2.482,-2.4864,-2.4874,-2.4938,-2.495,-2.4959,-2.4961,-2.4959,-2.4957,-2.4975,-2.4969,-2.4964,-2.4963,-2.4963,-2.4962,0,-2.4528,-2.4541,-2.4607,-2.464,-2.465,-2.4692,-2.4722,-2.4759,-2.4773,-2.4827,-2.484,-2.4863,-2.4914,-2.493,-2.4991,-2.4999,-2.5073,-2.507,-2.506,-2.506,-2.5102,-2.5098,-2.5237,-2.5256,-2.5144,-2.5145,-2.5146,0,-2.4585,-2.4625,-2.4663,-2.4689,-2.4709,-2.4753,-2.4781,-2.479,-2.482,-2.4864,-2.4896,-2.4946,-2.4986,-2.5068,-2.5092,-2.5139,-2.5138,-2.5183,-2.5145,-2.5142,-2.5138,-2.5135,-2.514,-2.519,-2.5191,-2.5192,-2.5193,0,-2.4684,-2.4688,-2.4728,-2.477,-2.4803,-2.4838,-2.4871,-2.4894,-2.4909,-2.4943,-2.4993,-2.5025,-2.5087,-2.5137,-2.5186,-2.5208,-2.5204,-2.5205,-2.5217,-2.5215,-2.5207,-2.5212,-2.5079,-2.5201,-2.52,-2.52,-2.5199,-2.5199,-2.4754,-2.4789,-2.4821,-2.4866,-2.4891,-2.4923,-2.4959,-2.4977,-2.5019,-2.5069,-2.5073,-2.5129,-2.5165,-2.523,-2.5254,-2.5299,-2.5286,-2.5304,-2.5309,-2.5313,-2.5316,-2.5201,-2.5308,-2.5308,-2.5308,-2.5308,-2.5307,0,-2.4852,-2.4872,-2.4913,-2.4959,-2.4995,-2.4986,-2.5023,-2.5054,-2.5102,-2.5135,-2.5174,-2.5234,-2.5282,-2.531,-2.5359,-2.539,-2.539,-2.5403,-2.54,-2.5406,-2.5325,-2.5309,-2.5403,-2.5403,-2.5403,-2.5403,-2.5403,-2.5402,-2.4908,-2.4967,-2.4976,-2.5049,-2.507,-2.5122,-2.5144,-2.5173,-2.52,-2.5265,-2.5305,-2.5322,-2.5354,-2.5406,-2.5451,-2.5458,-2.5477,-2.5492,-2.5497,-2.5421,-2.5411,-2.5402,-2.5387,-2.5496,-2.5496,-2.5575,-2.5575,-2.5576]},{"header":{"parameterUnit":"m.s-1","parameterCategory":1,"la1":30.2991,"la2":30.254,"lo1":-89.0895,"lo2":-89.0444,"dy":0.0017,"dx":0.0017,"nx":28,"ny":28,"refTime":"2024-02-11T03:00:00:Z","depth":0,"parameterNumber":3,"parameterNumberName":"V-component_of_WINDS"},"data":[0,0,0,0,0,0,0,0,0,0,0,0,0,0,0,0,0,0,0,0,0,0,0,0,0,0,0,0,0,0,0,0,0,0,0,0,0,0,0,0,0,0,0,0,0,0,0,0,0,0,0,0,0,0,0,0,0,0,2.3984,2.3984,0,2.3955,2.3954,2.3954,2.3962,2.3963,2.3964,2.3964,2.3933,2.3931,2.393,0,0,0,0,0,0,0,0,0,0,0,0,0,2.4048,2.4047,2.3984,2.3984,2.3983,2.3955,2.3954,2.3954,2.3962,2.3963,2.3964,2.3965,2.3933,2.3932,2.393,0,0,0,0,0,0,0,0,0,0,0,0,0,2.4019,2.4046,2.3984,2.3984,2.3984,2.3955,2.3954,2.3954,2.3962,2.3963,2.3964,2.3965,2.3934,2.3932,2.393,2.3898,0,0,2.3923,2.3922,0,0,0,0,0,0,0,0,2.4021,2.4017,2.3985,2.3984,2.3984,2.3963,2.3965,2.3935,2.3962,2.397,2.3964,2.3965,2.3942,2.3939,2.3932,2.3897,2.3895,2.3923,2.3922,2.3921,2.392,0,0,0,0,0,0,0,2.4023,2.4018,2.3972,2.3984,2.3984,2.3986,2.3983,2.3959,2.3951,2.397,2.397,2.3967,2.3942,2.3934,2.3931,2.3895,2.3923,2.3921,2.392,2.3919,2.3834,2.3833,0,0,0,0,0,0,2.4025,2.402,2.3973,2.3972,2.4005,2.3984,2.398,2.3969,2.3952,2.395,2.3966,2.3967,2.3937,2.3933,2.393,2.3893,2.3921,2.3919,2.3918,2.3835,2.3834,2.3833,0,0,0,0,0,0,2.4027,2.4021,2.3975,2.3996,2.399,2.3982,2.3969,2.3968,2.396,2.3949,2.3947,2.3959,2.3937,2.3933,2.3906,2.3892,2.3918,2.3916,2.3836,2.3835,2.3833,2.3818,0,0,0,0,0,0,2.4028,2.4021,2.4009,2.3996,2.3989,2.3951,2.3968,2.3967,2.3956,2.3957,2.3942,2.394,2.3938,2.391,2.3904,2.3889,2.3914,2.3837,2.3835,2.3834,2.382,2.3816,2.3813,0,0,0,0,0,2.4031,2.4006,2.4009,2.4003,2.3974,2.3951,2.3947,2.3945,2.3955,2.3943,2.3936,2.3941,2.3894,2.3907,2.3901,2.3885,2.3838,2.3836,2.3834,2.3821,2.3817,2.3813,0,0,0,0,0,0,2.4017,2.4004,2.4007,2.3977,2.3965,2.3952,2.3937,2.394,2.3925,2.3927,2.3925,2.3921,2.3894,2.3887,2.3901,2.3855,2.3868,2.3864,2.386,2.3856,2.3853,2.3855,2.3912,0,0,0,0,0,2.4011,2.3994,2.3983,2.3957,2.3951,2.3945,2.3935,2.3935,2.3922,2.3917,2.3908,2.3895,2.3878,2.3867,2.385,2.3819,2.3816,2.3805,2.3802,2.3799,2.3796,2.3781,2.3776,2.3825,2.3825,2.3825,0,0,2.3997,2.3988,2.3977,2.3954,2.3945,2.3927,2.3941,2.3921,2.3908,2.3913,2.3888,2.3882,2.3867,2.3839,2.3826,2.3832,2.3782,2.3797,2.3794,2.3793,2.3778,2.3773,2.3769,2.3824,2.3824,2.3824,0,0,2.3964,2.3955,2.3933,2.3924,2.391,2.3906,2.3901,2.3888,2.3884,2.3859,2.3863,2.3847,2.3817,2.3807,2.3798,2.3763,2.3767,2.3757,2.374,2.3724,2.3721,2.3717,2.3705,2.3701,2.3754,2.3754,2.3754,0,2.3949,2.3922,2.3921,2.3902,2.3892,2.3897,2.3876,2.3866,2.3848,2.3841,2.3848,2.3812,2.3802,2.3772,2.3763,2.3756,2.375,2.3759,2.3721,2.3718,2.3715,2.3703,2.3698,2.3753,2.3753,2.3753,2.3754,0,2.3905,2.3887,2.3871,2.3853,2.3842,2.3821,2.3817,2.3806,2.3807,2.3802,2.3777,2.3766,2.3748,2.3741,2.3741,2.3711,2.3715,2.3722,2.3735,2.3709,2.3698,2.3694,2.3752,2.3752,2.3752,2.3753,0,0,2.3862,2.3845,2.3839,2.3832,2.3818,2.3803,2.3783,2.3766,2.3757,2.3744,2.3727,2.3702,2.3709,2.3698,2.3698,2.3684,2.3658,2.3693,2.3692,2.3687,2.3625,2.362,2.3615,2.366,2.3659,2.3659,2.3626,0,2.3828,2.3793,2.3792,2.376,2.3743,2.3749,2.3731,2.3721,2.3716,2.3702,2.3697,2.3679,2.3689,2.3683,2.367,2.3664,2.3645,2.3666,2.3645,2.3644,2.3649,2.3609,2.3604,2.3574,2.3622,2.3621,2.3621,0,2.3783,2.377,2.3736,2.3726,2.3719,2.3703,2.3688,2.3674,2.3662,2.366,2.3649,2.3651,2.363,2.3644,2.3617,2.3631,2.3622,2.3618,2.3617,2.3615,2.3631,2.3607,2.3564,2.356,2.3614,2.3614,2.3615,0,2.3756,2.373,2.3707,2.37,2.3686,2.3676,2.3669,2.3659,2.3649,2.3635,2.3629,2.3613,2.3605,2.3593,2.359,2.3601,2.3563,2.3576,2.3561,2.3561,2.3553,2.3553,2.3508,2.3546,2.3546,2.3547,2.3547,0,2.3718,2.3698,2.3694,2.368,2.3658,2.3657,2.3635,2.3629,2.362,2.3605,2.3608,2.3594,2.3592,2.3577,2.3575,2.3553,2.3549,2.3547,2.3546,2.3546,2.3547,2.3541,2.3543,2.3545,2.3546,2.3546,2.3546,0,2.3684,2.3681,2.3657,2.3646,2.3643,2.3627,2.3618,2.3605,2.3601,2.3582,2.3578,2.3572,2.3555,2.3551,2.3531,2.3529,2.3503,2.3505,2.3508,2.3508,2.3493,2.3495,2.3443,2.3436,2.3478,2.3478,2.3477,0,2.3661,2.3645,2.3634,2.3624,2.3618,2.3602,2.3593,2.3591,2.3581,2.3567,2.3556,2.3539,2.3526,2.3499,2.3493,2.3477,2.3479,2.3462,2.3477,2.3478,2.348,2.3481,2.3479,2.3459,2.3459,2.3458,2.3458,0,2.362,2.3619,2.3605,2.3591,2.358,2.3568,2.3557,2.3549,2.3547,2.3535,2.3518,2.3508,2.3488,2.3472,2.3457,2.345,2.3454,2.3454,2.3449,2.3449,2.3452,2.3451,2.3501,2.3455,2.3455,2.3455,2.3455,2.3456,2.3591,2.3578,2.3568,2.3553,2.3544,2.3535,2.3522,2.3517,2.3503,2.3487,2.3487,2.3469,2.3458,2.3438,2.3431,2.3417,2.3422,2.3416,2.3414,2.3413,2.3412,2.3454,2.3414,2.3414,2.3414,2.3414,2.3414,0,2.3551,2.3545,2.3531,2.3516,2.3504,2.3509,2.3497,2.3487,2.3471,2.3461,2.3449,2.343,2.3414,2.3407,2.3392,2.3382,2.3383,2.3378,2.3379,2.3378,2.3407,2.3413,2.3377,2.3377,2.3377,2.3377,2.3377,2.3377,2.3528,2.3507,2.3505,2.348,2.3474,2.3457,2.345,2.3441,2.3433,2.3412,2.34,2.3395,2.3387,2.3371,2.3358,2.3356,2.335,2.3345,2.3344,2.3372,2.3375,2.3379,2.3384,2.3343,2.3343,2.3315,2.3315,2.3315]}]]